RH
18 16 11 10 10 13 18 19 19 18 16 16 17 18 19 20 20 19 19 18 18 18 17 17 17 16 15 16 16 15 12 21 20 20 19 13 10 22 26 26 22 18 17 14 13
18 20 17 12 10 14 17 20 20 20 21 20 19 20 21 22 21 21 21 20 20 19 19 19 18 18 17 16 16 16 17 24 24 20 14 13 14 15 24 25 22 19 20 19 16
20 20 22 20 16 14 16 16 19 21 21 21 21 21 21 21 20 19 19 20 21 21 20 20 19 18 17 16 16 15 15 23 15 13 13 14 15 16 22 23 24 20 22 21 17
27 25 24 26 25 22 20 19 18 20 20 20 20 20 20 20 21 19 18 19 20 22 22 21 20 19 18 17 16 16 15 14 14 14 13 14 16 17 22 29 23 22 23 22 19
32 31 30 30 31 31 29 29 30 27 25 24 24 24 24 25 24 22 21 20 20 22 23 23 22 20 18 18 16 16 16 16 15 15 14 14 15 20 21 22 24 24 24 24 21
37 35 34 34 33 33 34 32 32 31 30 29 29 29 29 28 26 26 24 24 24 23 24 24 23 20 20 19 18 16 17 17 17 16 16 16 18 19 22 20 26 27 26 25 20
36 40 39 38 37 36 34 34 32 32 31 30 29 29 28 28 27 26 27 28 26 25 24 24 24 22 20 20 19 19 20 20 18 18 18 19 18 16 17 17 18 19 16 16 16
38 38 42 42 41 40 38 36 34 32 31 29 27 25 24 26 26 29 28 28 28 28 25 25 25 24 22 21 21 22 23 26 19 19 19 20 22 19 16 16 16 16 16 16 17
46 41 41 45 45 43 42 39 37 35 33 31 27 23 19 21 22 24 28 30 31 30 29 29 29 27 24 22 28 24 26 30 29 18 17 18 21 18 12 15 15 13 12 10 10
50 45 42 44 47 46 44 42 40 38 36 33 28 23 22 18 18 18 22 28 30 31 32 31 31 28 25 29 31 27 29 26 29 19 14 16 16 13 10 12 13 13 13 12 10
97 52 45 50 50 48 47 45 42 39 37 34 28 25 23 19 18 17 19 24 29 34 35 33 31 27 28 25 25 27 27 25 28 19 18 16 18 21 12 10 11 12 10 11 11
99 92 51 49 52 53 49 46 43 37 36 35 33 30 24 20 19 18 20 24 26 31 35 34 30 31 28 30 32 28 27 28 30 21 21 24 19 22 16 12 14 15 14 13 13
97 99 84 55 54 54 57 50 45 41 37 36 32 28 27 24 22 19 19 23 25 31 30 35 36 33 32 31 29 27 26 30 33 26 24 25 24 26 20 18 15 17 18 15 14
85 88 97 78 63 66 60 63 49 39 33 38 35 32 30 27 26 23 21 26 30 36 41 39 40 38 32 32 32 30 30 30 36 29 37 28 43 22 20 19 20 19 18 18 15
92 94 86 88 81 69 61 48 46 34 50 40 35 34 32 31 31 28 24 26 33 33 36 38 33 33 35 34 31 36 36 32 29 31 45 35 34 24 24 18 16 15 15 15 16
86 78 86 95 66 82 81 64 50 58 59 41 34 35 34 33 32 31 32 30 34 37 37 41 35 31 34 34 34 29 32 32 35 50 65 34 37 25 24 19 17 15 15 15 15
71 75 97 93 66 74 93 91 58 66 53 41 36 34 36 38 36 34 32 34 37 45 45 37 38 32 30 34 37 37 38 65 71 71 53 39 43 30 27 23 19 16 15 15 14
94 89 95 87 92 57 92 94 94 67 55 36 38 38 44 51 44 38 38 40 36 42 44 52 50 37 34 33 32 35 40 60 51 44 31 43 46 33 21 27 18 16 16 17 16
91 92 82 62 68 94 86 99 82 66 39 45 40 40 55 48 46 47 46 42 48 34 42 46 42 38 38 36 38 50 50 41 34 28 47 35 34 27 21 18 22 18 17 18 18
86 91 66 39 39 87 94 95 87 60 66 33 47 40 44 42 40 47 52 32 34 31 35 38 43 38 42 46 46 44 44 49 38 72 42 23 31 24 14 13 18 22 20 20 24
82 97 65 41 35 44 84 98 89 83 64 47 71 46 41 45 42 47 48 34 30 33 36 41 34 42 47 48 44 48 49 44 46 40 57 31 26 17 16 14 17 24 27 29 35
100 93 73 54 59 78 92 97 91 85 70 56 43 57 40 37 33 50 36 32 26 32 36 42 39 39 41 40 45 48 45 41 37 61 36 58 48 13 12 16 16 24 31 36 41
100 97 91 65 91 76 82 90 82 68 63 66 62 45 49 34 31 30 30 27 28 23 33 38 43 45 40 42 41 48 42 44 41 39 48 58 44 18 14 14 17 26 34 39 42
97 97 85 87 90 97 97 97 97 94 91 63 61 50 44 39 36 30 26 27 26 26 30 36 41 32 44 41 27 33 28 38 45 48 41 33 26 20 17 17 18 22 33 36 40
94 93 96 95 98 97 97 97 96 98 97 87 83 74 89 76 85 43 34 34 33 30 32 39 42 37 31 27 24 24 25 29 38 38 49 41 32 25 22 20 22 24 29 36 39
44 82 95 98 96 97 97 94 97 97 95 96 96 96 85 97 97 61 49 63 62 45 37 39 42 35 31 30 33 44 52 45 37 37 43 42 32 31 32 27 28 33 35 36 38
17 24 51 60 76 68 78 60 74 94 92 94 96 88 94 98 89 81 77 43 42 40 38 47 46 48 60 64 60 56 53 47 42 33 33 37 35 33 31 31 34 35 36 38 41
Wind_Speed
7 7 8 10 11 11 11 11 13 13 13 13 14 14 13 13 13 13 12 11 12 11 12 13 11 13 13 14 14 14 15 12 12 11 9 14 16 19 19 16 15 13 10 8 8
10 9 9 10 12 12 12 12 13 14 14 14 14 14 14 14 14 14 13 13 13 13 13 12 11 12 14 15 16 17 17 12 16 13 16 14 15 19 19 19 17 15 13 12 10
11 12 11 11 11 13 13 13 14 15 15 15 15 15 15 15 16 16 16 16 16 14 15 13 13 13 14 14 17 19 19 18 16 15 16 16 16 18 19 20 18 16 15 14 12
13 12 13 13 12 13 14 14 15 16 16 17 17 16 17 17 12 16 19 19 18 16 15 14 13 14 16 16 16 17 17 17 17 16 15 16 18 18 19 18 21 19 16 15 13
15 16 15 15 15 15 15 15 15 16 16 17 18 18 18 18 19 16 11 18 19 18 17 15 15 14 15 15 17 16 18 17 16 16 17 16 17 19 20 22 20 20 18 16 15
18 18 18 18 17 17 17 17 16 17 17 18 18 19 20 20 19 20 20 14 14 18 19 17 16 18 16 18 14 16 18 18 17 17 16 16 18 18 20 19 21 21 21 19 18
20 20 21 20 20 19 19 19 18 18 19 19 19 20 22 23 20 20 22 21 19 17 17 17 18 17 18 17 17 17 16 16 18 18 18 16 20 20 21 17 21 22 21 20 19
22 23 22 21 21 21 21 20 20 20 20 20 21 22 24 22 23 22 21 21 21 19 19 19 18 18 19 18 16 16 17 15 18 18 18 17 12 15 17 19 15 19 19 18 18
23 24 23 22 23 22 21 21 21 21 20 21 22 22 25 24 24 24 23 22 22 24 24 22 21 23 22 19 14 16 12 16 15 16 19 18 10 18 16 20 19 18 18 18 19
23 23 25 24 23 23 22 21 21 22 22 22 23 21 24 19 23 24 25 25 24 23 22 24 24 24 24 21 20 17 17 14 14 17 19 21 20 14 16 19 21 22 19 20 20
23 23 24 23 22 23 22 22 21 23 25 25 22 21 24 14 23 20 25 26 24 26 25 26 27 32 28 27 22 20 13 13 12 20 15 21 18 18 19 20 20 20 19 19 20
24 24 23 23 23 22 22 21 22 21 23 24 26 28 23 21 19 19 21 24 28 29 27 27 34 25 22 21 23 27 21 15 17 18 19 18 21 22 21 23 23 21 20 21 23
24 25 24 22 21 21 22 20 20 20 23 28 25 25 25 26 24 22 20 24 25 28 31 29 21 22 28 27 27 26 26 21 15 15 18 18 23 22 29 29 29 26 26 25 27
24 24 27 24 21 20 19 21 17 17 13 19 26 31 28 27 28 27 25 24 27 24 23 22 27 25 18 23 27 26 25 24 23 19 11 17 9 20 26 31 31 31 32 31 29
28 26 25 25 25 18 16 15 14 13 6 11 25 26 28 32 29 30 29 27 26 25 23 20 21 27 29 24 21 20 21 19 22 19 16 14 9 17 22 26 31 35 35 34 34
28 27 30 28 24 25 16 13 14 8 8 9 13 21 27 30 34 28 28 30 31 26 25 24 21 19 23 27 23 21 18 13 13 9 7 23 17 16 24 28 29 29 30 31 31
26 24 25 30 19 22 29 17 10 12 11 12 13 19 20 25 29 28 27 32 28 19 23 27 27 25 21 21 22 23 16 5 4 5 7 15 18 29 19 24 30 29 29 29 28
20 19 16 23 18 18 20 22 10 15 25 8 10 15 19 19 22 28 24 26 32 25 11 18 12 28 27 27 22 27 25 9 6 6 5 12 10 12 32 33 26 29 27 26 26
18 16 11 11 14 22 20 16 14 17 13 20 19 11 16 18 15 21 27 26 23 34 20 15 16 16 28 29 25 23 28 22 5 2 2 9 9 16 22 24 28 26 24 23 23
20 17 13 13 16 18 21 20 14 17 22 9 9 13 14 17 21 18 17 17 34 29 33 16 6 16 23 25 27 22 22 13 13 5 7 11 8 13 17 22 22 27 26 22 20
16 18 17 15 19 24 27 22 17 24 21 21 26 13 11 13 19 20 12 19 17 23 28 29 17 7 17 23 30 30 24 15 13 13 4 4 6 16 24 17 20 21 22 22 22
13 15 17 16 19 23 21 23 19 18 23 25 19 28 22 14 17 19 17 22 14 21 27 33 19 12 17 18 25 29 31 31 12 8 14 5 8 8 13 20 19 21 20 22 23
9 13 14 16 18 24 25 29 25 24 20 22 24 24 24 25 15 17 20 21 21 17 17 26 17 7 5 14 21 28 35 34 35 17 13 7 6 19 14 16 20 20 21 22 22
9 5 13 18 23 23 25 24 27 34 30 26 23 26 20 18 16 12 18 17 21 21 22 19 20 19 12 7 9 24 34 35 33 18 20 28 19 15 17 20 20 23 24 23 23
2 8 5 12 25 29 19 18 19 18 26 26 28 28 23 24 22 23 22 17 15 16 23 22 19 25 25 14 12 13 13 25 37 38 20 22 28 28 19 18 23 24 24 24 23
15 15 12 8 8 10 9 11 11 15 15 13 15 31 29 32 30 13 14 20 21 22 25 28 18 20 20 22 19 21 23 24 24 32 40 36 30 23 23 28 27 27 27 25 25
13 10 9 8 6 10 8 9 9 8 10 12 15 13 17 14 13 19 17 17 18 17 17 24 23 14 13 20 23 25 35 32 31 28 27 37 35 31 25 26 27 28 29 27 25
Wind_Direction
274 268 256 242 232 234 233 227 220 220 223 222 220 220 224 230 229 230 230 227 231 233 230 230 229 231 230 228 225 225 227 240 236 231 233 242 227 220 224 232 231 231 235 226 217
274 262 256 249 237 232 233 233 231 229 221 222 225 227 232 235 239 239 234 231 231 234 233 232 229 232 233 230 226 221 230 244 232 232 237 243 229 227 224 231 234 229 231 233 233
263 265 258 249 244 238 236 237 232 231 232 230 232 236 239 240 243 241 241 238 232 230 232 235 230 229 233 231 231 230 234 238 247 247 242 238 231 230 221 232 236 233 232 236 236
260 256 258 255 250 244 239 236 238 236 235 237 236 236 240 242 243 247 240 237 235 232 234 232 235 234 234 234 236 237 241 248 247 244 240 236 232 230 225 224 233 234 230 233 236
258 256 252 250 249 248 245 241 239 239 239 240 242 239 239 241 240 247 243 236 237 235 234 229 232 234 235 240 241 240 247 246 245 243 240 238 234 229 228 233 234 234 233 236 236
258 254 252 251 247 245 246 244 243 244 241 240 242 245 243 241 242 244 242 234 232 234 233 231 230 231 229 238 237 242 247 245 244 243 238 237 237 231 231 232 232 234 237 240 236
258 255 254 250 250 247 245 247 244 243 246 246 243 244 245 242 242 239 244 237 234 234 234 227 228 229 236 242 246 246 249 249 244 241 238 236 241 236 236 233 234 236 237 234 230
263 258 253 252 251 250 248 247 247 245 245 246 247 246 247 244 244 242 236 239 233 231 229 228 229 233 234 245 247 241 242 247 251 237 235 230 245 241 234 228 228 225 227 226 223
264 263 261 258 253 251 251 249 249 247 247 248 248 248 251 245 240 240 237 232 233 227 230 235 235 235 236 235 240 239 242 237 248 239 233 227 234 245 233 227 225 221 221 223 219
263 259 257 255 254 252 250 249 248 248 246 248 248 248 245 247 240 236 235 234 230 234 229 230 229 233 231 217 222 232 239 238 229 248 236 233 224 241 230 221 227 225 225 222 219
265 260 256 254 251 250 248 248 249 248 245 244 244 245 243 251 241 235 230 231 228 230 228 228 224 227 232 240 240 249 237 246 238 243 237 237 235 235 226 220 214 215 221 220 218
266 263 257 252 250 250 247 247 248 252 251 246 241 243 243 246 244 235 229 224 225 228 222 228 233 234 238 232 234 240 244 243 246 248 241 241 237 226 228 215 212 217 222 224 223
266 265 260 253 250 248 248 248 247 250 253 253 244 242 242 243 243 239 233 226 227 225 230 231 242 236 238 237 237 242 242 236 240 247 243 245 252 229 232 228 229 233 236 236 233
264 263 259 253 252 247 249 243 248 247 256 254 252 243 237 237 240 239 233 229 227 221 226 235 236 239 236 240 237 241 245 235 234 242 242 243 265 238 239 235 236 237 238 240 238
270 267 261 250 241 245 245 245 237 228 258 232 233 233 233 227 234 234 231 228 229 224 218 221 236 239 236 240 234 232 239 241 240 241 240 235 232 238 229 238 235 238 241 240 239
268 272 263 247 235 234 248 248 227 202 242 241 223 221 221 223 226 233 221 219 221 224 228 230 238 234 229 235 232 231 233 232 226 216 240 233 220 244 235 240 240 237 236 239 238
274 267 256 247 226 225 231 226 198 220 231 249 231 231 220 224 222 221 222 216 212 206 223 230 235 234 231 225 220 216 201 148 203 200 238 225 216 232 239 233 237 239 236 234 234
268 278 280 199 212 221 222 220 200 235 228 244 250 229 211 214 221 221 220 221 220 214 213 210 228 225 225 223 219 212 201 188 219 208 207 217 227 229 238 239 235 237 238 233 230
270 254 267 261 231 217 189 204 220 218 237 224 244 234 219 225 214 218 223 226 227 222 205 216 225 234 223 220 215 208 210 217 237 296 278 209 233 240 234 237 230 230 230 230 228
247 252 254 236 231 223 205 228 224 228 231 231 231 237 224 228 214 210 211 237 234 233 222 226 225 226 217 215 214 213 210 205 208 207 233 213 232 228 224 231 230 222 222 221 219
245 228 234 230 214 209 211 227 252 240 235 239 245 254 245 215 232 220 217 235 228 226 219 219 222 223 209 213 214 209 206 202 200 226 242 241 228 235 235 238 234 219 213 213 209
248 206 218 223 205 212 218 229 245 244 237 240 240 236 252 257 246 225 229 229 231 222 214 212 217 224 217 227 224 221 222 216 208 210 224 246 253 240 236 224 222 223 217 209 206
236 205 209 213 208 219 222 228 234 234 241 245 241 237 236 252 246 235 237 242 236 224 214 216 216 198 233 242 232 225 225 225 224 235 218 203 235 227 225 225 221 214 211 209 210
182 200 209 217 230 240 243 266 256 250 241 232 224 226 229 239 239 250 242 242 240 228 213 213 213 209 228 224 223 221 231 226 223 225 229 229 237 234 234 231 224 215 205 208 208
347 221 255 234 240 248 250 258 272 245 229 233 242 243 244 242 241 253 248 253 250 241 224 217 224 226 233 242 240 241 235 232 228 232 224 242 245 247 246 242 224 221 217 209 207
22 29 24 242 349 269 275 282 274 262 237 238 254 239 246 242 234 232 263 255 249 244 234 227 232 238 243 246 252 255 254 251 241 236 237 242 250 250 239 234 226 222 213 209 209
7 26 350 339 350 350 326 322 343 283 272 266 260 267 260 246 259 255 247 249 237 238 236 224 229 236 252 261 267 265 254 251 251 249 251 243 250 246 242 230 224 222 217 217 221